User: anonymous   Login
Location: *
(50.8667°S, 179.2667°W)
Time: 05:01:12
(UTC+00:00)
Language:

Cosmos 1844 - Orbit

View from above orbital plane
View from above orbital plane
View from above satellite
View from above satellite

Ground track
Ground track

The orbit data is extracted from the following two-line orbital elements,

1 17973U 87041A   24060.58252184  .00000326  00000-0  19486-3 0  9996
2 17973  70.8989 152.8471 0029247  49.8500 310.5176 14.14285954899077
Epoch (UTC): 29 February 2024 13:58:49
Eccentricity: 0.0029247
inclination: 70.8989°
perigee height: 823 km
apogee height: 866 km
right ascension of ascending node: 152.8471°
argument of perigee: 49.8500°
revolutions per day: 14.14285954
mean anomaly at epoch: 310.5176°
orbit number at epoch: 89907

The dashed part of the orbit path shows where the satellite is in the earth's shadow,  

DLR